Tracking 22881 objects as of 19-Apr-2021
HD Live streaming from Space Station
objects crossing your sky now

STARLINK-1837

Track STARLINK-1837 now!
10-day predictions
STARLINK-1837 is classified as:


NORAD ID: 47128
Int'l Code: 2020-088G
Perigee: 549.8 km
Apogee: 559.1 km
Inclination: 53.0 °
Period: 95.6 minutes
Semi major axis: 6925 km
RCS: Unknown
Launch date: November 25, 2020
Source: United States (US)
Launch site: AIR FORCE EASTERN TEST RANGE (AFETR)
aabbcc
Your satellite tracking list
Your tracking list is empty




NASA's NSSDC Master Catalog

Two Line Element Set (TLE):
1 47128U 20088G   21109.58334491  .00042178  00000-0  28360-2 0  9993
2 47128  53.0317  15.3970 0006712 301.2755 321.3157 15.06353406 23366
Source of the keplerian elements: AFSPC